When you browse on this site, cookies collect data to enhance your experience and personalize the content and advertising you see.
Visit our Privacy Policy to learn more. By continuing to use the site, you agree to this use of cookies and data.
  • In Hungary
  • List of Countries
  • For 7 days
  • Water Temperature
  • Satellite Maps
  • Weather Map
  • News
  • Weather Widgets
  • user-avatar
    Login

    Hourly Weather Aguas Santas

    Today, 23 July, Tuesday

    Time Temperature Precipitation Wind Pressure Humidity
    00:00 +21°C° 0 mm 1 mps 753 mmHg 77%
    01:00 +21°C° 0 mm 1 mps 752 mmHg 79%
    02:00 +21°C° 0 mm 1 mps 752 mmHg 80%
    03:00 +21°C° 0 mm 1 mps 752 mmHg 82%
    04:00 +21°C° 0 mm 1 mps 752 mmHg 83%
    05:00 +20°C° 0 mm 1 mps 752 mmHg 85%
    06:00 +22°C° 0 mm 1 mps 752 mmHg 76%
    07:00 +24°C° 0 mm 1 mps 753 mmHg 68%
    08:00 +27°C° 0 mm 1 mps 753 mmHg 59%
    09:00 +28°C° 0 mm 2 mps 753 mmHg 56%
    10:00 +29°C° 0 mm 2 mps 753 mmHg 52%
    11:00 +30°C° 0 mm 3 mps 753 mmHg 49%
    12:00 +29°C° 0 mm 4 mps 752 mmHg 50%
    13:00 +29°C° 0 mm 4 mps 752 mmHg 52%
    14:00 +28°C° 0 mm 5 mps 752 mmHg 54%
    15:00 +27°C° 0 mm 5 mps 752 mmHg 54%
    16:00 +27°C° 0 mm 5 mps 752 mmHg 53%
    17:00 +26°C° 0 mm 5 mps 752 mmHg 53%
    18:00 +25°C° 0 mm 4 mps 752 mmHg 59%
    19:00 +22°C° 0 mm 3 mps 752 mmHg 66%
    20:00 +20°C° 0 mm 2 mps 753 mmHg 72%
    21:00 +20°C° 0 mm 2 mps 753 mmHg 73%
    22:00 +19°C° 0 mm 2 mps 753 mmHg 74%
    23:00 +20°C° 0 mm 1 mps 753 mmHg 75%

    Tomorrow, 24 July, Wednesday

    Time Temperature Precipitation Wind Pressure Humidity
    00:00 +20°C° 0 mm 1 mps 753 mmHg 76%
    01:00 +20°C° 0 mm 1 mps 752 mmHg 77%
    02:00 +19°C° 0 mm 1 mps 752 mmHg 78%
    03:00 +19°C° 0 mm 1 mps 752 mmHg 77%
    04:00 +19°C° 0 mm 1 mps 752 mmHg 76%
    05:00 +19°C° 0 mm 1 mps 752 mmHg 76%
    06:00 +22°C° 0 mm 1 mps 752 mmHg 66%
    07:00 +24°C° 0 mm 1 mps 752 mmHg 57%
    08:00 +27°C° 0 mm 1 mps 752 mmHg 47%
    09:00 +28°C° 0 mm 1 mps 751 mmHg 42%
    10:00 +29°C° 0 mm 2 mps 751 mmHg 38%
    11:00 +31°C° 0 mm 3 mps 751 mmHg 33%
    12:00 +30°C° 0 mm 3 mps 751 mmHg 36%
    13:00 +30°C° 0 mm 3 mps 750 mmHg 39%
    14:00 +29°C° 0 mm 4 mps 750 mmHg 42%
    15:00 +28°C° 0 mm 3 mps 750 mmHg 50%
    16:00 +27°C° 0 mm 2 mps 750 mmHg 57%
    17:00 +26°C° 0 mm 2 mps 750 mmHg 64%
    18:00 +25°C° 0 mm 2 mps 751 mmHg 71%
    19:00 +23°C° 0 mm 1 mps 751 mmHg 78%
    20:00 +22°C° 0 mm 1 mps 751 mmHg 85%
    21:00 +22°C° 0 mm 1 mps 751 mmHg 86%
    22:00 +21°C° 0 mm 1 mps 751 mmHg 87%
    23:00 +20°C° 0 mm 2 mps 751 mmHg 88%

    Day after tomorrow, 25 July, Thursday

    Time Temperature Precipitation Wind Pressure Humidity
    00:00 +20°C° 0 mm 2 mps 751 mmHg 89%
    01:00 +20°C° 0 mm 2 mps 751 mmHg 90%
    02:00 +20°C° 0 mm 2 mps 751 mmHg 90%
    03:00 +20°C° 0 mm 2 mps 751 mmHg 91%
    04:00 +20°C° 0 mm 2 mps 751 mmHg 91%
    05:00 +20°C° 0 mm 2 mps 751 mmHg 91%
    06:00 +21°C° 0 mm 3 mps 751 mmHg 84%
    07:00 +22°C° 0 mm 3 mps 751 mmHg 78%
    08:00 +24°C° 0 mm 3 mps 751 mmHg 71%
    09:00 +25°C° 0 mm 4 mps 751 mmHg 65%
    10:00 +27°C° 0 mm 4 mps 752 mmHg 58%
    11:00 +28°C° 0 mm 5 mps 752 mmHg 51%
    12:00 +27°C° 0.1 mm 4 mps 752 mmHg 58%
    13:00 +26°C° 0.1 mm 4 mps 752 mmHg 66%
    14:00 +25°C° 0.1 mm 4 mps 751 mmHg 73%
    15:00 +24°C° 0 mm 3 mps 752 mmHg 73%
    16:00 +24°C° 0 mm 3 mps 752 mmHg 74%
    17:00 +22°C° 0 mm 3 mps 752 mmHg 74%
    18:00 +21°C° 0 mm 3 mps 752 mmHg 77%
    19:00 +20°C° 0 mm 3 mps 753 mmHg 80%
    20:00 +20°C° 0 mm 3 mps 753 mmHg 83%
    21:00 +19°C° 0 mm 3 mps 753 mmHg 83%
    22:00 +18°C° 0 mm 3 mps 753 mmHg 83%
    23:00 +18°C° 0 mm 3 mps 752 mmHg 83%

    26 July, Friday

    Time Temperature Precipitation Wind Pressure Humidity
    00:00 +17°C° 0 mm 3 mps 752 mmHg 84%
    01:00 +17°C° 0 mm 3 mps 752 mmHg 85%
    02:00 +17°C° 0 mm 3 mps 752 mmHg 86%
    03:00 +17°C° 0 mm 3 mps 752 mmHg 87%
    04:00 +16°C° 0 mm 3 mps 752 mmHg 88%
    05:00 +16°C° 0 mm 3 mps 752 mmHg 89%
    06:00 +18°C° 0 mm 3 mps 753 mmHg 80%
    07:00 +20°C° 0 mm 4 mps 753 mmHg 71%
    08:00 +21°C° 0 mm 4 mps 753 mmHg 62%
    09:00 +22°C° 0 mm 5 mps 753 mmHg 58%
    10:00 +23°C° 0 mm 6 mps 753 mmHg 54%
    11:00 +26°C° 0 mm 7 mps 753 mmHg 51%
    12:00 +24°C° 0 mm 7 mps 753 mmHg 51%
    13:00 +24°C° 0 mm 8 mps 753 mmHg 50%
    14:00 +24°C° 0 mm 8 mps 752 mmHg 50%
    15:00 +23°C° 0 mm 8 mps 753 mmHg 51%
    16:00 +22°C° 0 mm 8 mps 753 mmHg 53%
    17:00 +22°C° 0 mm 7 mps 753 mmHg 54%
    18:00 +20°C° 0 mm 7 mps 753 mmHg 61%
    19:00 +19°C° 0 mm 6 mps 753 mmHg 67%
    20:00 +16°C° 0 mm 5 mps 754 mmHg 74%
    21:00 +16°C° 0 mm 5 mps 754 mmHg 76%
    22:00 +15°C° 0 mm 4 mps 754 mmHg 79%
    23:00 +15°C° 0 mm 4 mps 754 mmHg 81%

    27 July, Saturday

    Time Temperature Precipitation Wind Pressure Humidity
    00:00 +14°C° 0 mm 3 mps 753 mmHg 82%
    01:00 +14°C° 0 mm 3 mps 753 mmHg 82%
    02:00 +15°C° 0 mm 2 mps 753 mmHg 82%
    03:00 +15°C° 0 mm 2 mps 753 mmHg 82%
    04:00 +15°C° 0 mm 1 mps 753 mmHg 81%
    05:00 +15°C° 0 mm 1 mps 753 mmHg 80%
    06:00 +18°C° 0 mm 1 mps 753 mmHg 70%
    07:00 +20°C° 0 mm 1 mps 753 mmHg 59%
    08:00 +23°C° 0 mm 1 mps 753 mmHg 48%
    09:00 +23°C° 0 mm 1 mps 752 mmHg 50%
    10:00 +21°C° 0 mm 2 mps 752 mmHg 51%
    11:00 +21°C° 0 mm 2 mps 752 mmHg 53%
    12:00 +23°C° 0 mm 2 mps 752 mmHg 54%
    13:00 +22°C° 0 mm 3 mps 751 mmHg 56%
    14:00 +22°C° 0 mm 3 mps 751 mmHg 58%
    15:00 +22°C° 0.1 mm 3 mps 751 mmHg 65%
    16:00 +21°C° 0.1 mm 2 mps 751 mmHg 72%
    17:00 +20°C° 0.1 mm 2 mps 750 mmHg 79%
    18:00 +21°C° 0 mm 1 mps 751 mmHg 82%
    19:00 +21°C° 0 mm 1 mps 751 mmHg 85%
    20:00 +21°C° 0 mm 1 mps 751 mmHg 88%
    21:00 +21°C° 0.1 mm 1 mps 751 mmHg 89%
    22:00 +19°C° 0.1 mm 0 mps 751 mmHg 89%
    23:00 +18°C° 0.1 mm 0 mps 751 mmHg 90%

    28 July, Sunday

    Time Temperature Precipitation Wind Pressure Humidity
    00:00 +18°C° 0.1 mm 0 mps 751 mmHg 91%
    01:00 +18°C° 0.1 mm 0 mps 750 mmHg 92%
    02:00 +20°C° 0.1 mm 1 mps 750 mmHg 93%
    03:00 +20°C° 0.1 mm 1 mps 750 mmHg 91%
    04:00 +20°C° 0.1 mm 1 mps 750 mmHg 90%
    05:00 +20°C° 0.1 mm 1 mps 750 mmHg 89%
    06:00 +21°C° 0.1 mm 1 mps 750 mmHg 81%
    07:00 +23°C° 0.1 mm 1 mps 750 mmHg 73%
    08:00 +25°C° 0.1 mm 1 mps 750 mmHg 65%
    09:00 +26°C° 0 mm 2 mps 750 mmHg 61%
    10:00 +26°C° 0 mm 3 mps 750 mmHg 56%
    11:00 +27°C° 0 mm 3 mps 750 mmHg 51%
    12:00 +27°C° 0 mm 4 mps 750 mmHg 51%
    13:00 +27°C° 0 mm 4 mps 750 mmHg 50%
    14:00 +28°C° 0 mm 5 mps 749 mmHg 49%
    15:00 +27°C° 0 mm 5 mps 749 mmHg 52%
    16:00 +26°C° 0 mm 5 mps 749 mmHg 55%
    17:00 +26°C° 0 mm 5 mps 749 mmHg 57%
    18:00 +23°C° 0 mm 4 mps 749 mmHg 63%
    19:00 +22°C° 0 mm 3 mps 750 mmHg 69%
    20:00 +20°C° 0 mm 2 mps 750 mmHg 75%
    21:00 +20°C° 0 mm 2 mps 750 mmHg 76%
    22:00 +19°C° 0 mm 2 mps 750 mmHg 78%
    23:00 +20°C° 0 mm 1 mps 750 mmHg 80%
    Show more